Regional Weather Roundup
Issued by NWS Northern Indiana

Home | Current Version | Previous Version | Text Only | Print | Product List | Glossary Off
Versions: 1 2 3 4 5 6 7 8 9 10 11 12 13 14 15 16 17 18 19 20 21 22 23 24 25 26 27 28 29 30 31 32 33 34 35 36 37 38 39 40 41 42 43 44 45 46 47 48 49 50

000
ASUS43 KIWX 241310
RWRIWX

KIWX WEATHER ROUNDUP
NATIONAL WEATHER SERVICE NORTHERN INDIANA
800 AM EST FRI FEB 24 2017

NOTE: "FAIR" INDICATES FEW OR NO CLOUDS BELOW 12,000 FEET WITH NO
SIGNIFICANT WEATHER AND/OR OBSTRUCTIONS TO VISIBILITY.

* THESE STATIONS ARE NOT UNDER NWS QUALITY CONTROL. THEY ALSO MAY NOT
  REPORT WEATHER SUCH AS PRECIPITATION OR FOG.

INZ001>027-241400-
NORTHERN INDIANA

CITY           SKY/WX    TMP DP  RH WIND       PRES   REMARKS
GARY*          PTCLDY    45  45 100 VRB6      29.40F FOG
VALPARAISO     CLOUDY    59  55  87 S14G22    29.44F
MICHIGAN CITY* RAIN      57  57 100 S7        29.40F
LAPORTE*       TSTM      57  54  91 SE14G22   29.42F
KNOX*          CLOUDY    57  39  51 S15       29.50S
SOUTH BEND     LGT RAIN  58  54  86 S16G23    29.52R
ELKHART*       CLOUDY    54  50  87 S8        29.52F
GOSHEN         MOCLDY    54  50  86 S13       29.53S
MONTICELLO*    CLOUDY    60  54  82 S12       29.52S
LOGANSPORT*    MOCLDY    55  54  94 S10       29.55S
ROCHESTER*     PTCLDY    61  54  77 S12       29.54R
WARSAW*        PTCLDY    54  52  94 CALM      29.54S
ANGOLA*        CLOUDY    48  48 100 SE8       29.55F
FORT WAYNE     CLOUDY    57  52  83 S13       29.57F
HUNTINGTON*    CLOUDY    58  55  87 S10G20    29.56S
PERU/GRISSOM   PTCLDY    58  58 100 S15       29.54S
MARION*        CLEAR     58  53  85 S18       29.59R

$$
INZ028>050-241400-
CENTRAL INDIANA

CITY           SKY/WX    TMP DP  RH WIND       PRES   REMARKS
LAFAYETTE      CLOUDY    62  56  80 SW10      29.53S
KOKOMO*        PTCLDY    56  53  90 S14       29.57S
MUNCIE*        CLEAR     60  54  80 S16G23    29.60S
INDIANAPOLIS   PTCLDY    60  54  80 S14       29.60R

$$
MIZ043>046-050>051-056>058-064>065-071>073-077>080-241400-
SOUTHWEST LOWER MICHIGAN

CITY           SKY/WX    TMP DP  RH WIND       PRES   REMARKS
BATTLE CREEK   FOG       41  41 100 E8        29.56F VSB 1/2
BENTON HARBOR  TSTM      54  51  90 SE12      29.46F
COLDWATER*     CLOUDY    48  48 100 SE9G17    29.55F FOG
HILLSDALE*     FOG       43  43 100 E7        29.57F VSB<1/4
HOLLAND        LGT RAIN  39  36  89 E14G26    29.53F
GRAND RAPIDS   CLOUDY    35  33  92 E17       29.57F FOG     WCI  25
KALAMAZOO      FOG       43  39  86 E9        29.55F VSB 1
STURGIS*       CLOUDY    50  49  97 MISG      29.53F FOG
THREE RIVERS*  CLOUDY    48  47  99 E3        29.53F FOG

$$
OHZ001>008-015>018-024>025-241400-
NORTHWEST OHIO

CITY           SKY/WX    TMP DP  RH WIND       PRES   REMARKS
WAUSEON*       FOG       45  45 100 SE7       29.60F VSB<1/4
DEFIANCE       PTCLDY    45  43  93 SE6       29.59F FOG
FINDLAY        CLEAR     57  51  80 S15       29.63F
TOLEDO EXPRESS FOG       42  42 100 SE6       29.61F VSB 1/8
TOLEDO METCALF FOG       42  42 100 CALM      29.64F VSB<1/4
LIMA           CLEAR     58  54  86 S12       29.64F

$$
AND FOR LAKE MICHIGAN COASTAL AND OPEN LAKE BUOY OBSERVATIONS

STATION/POSITION TEMP    WIND        PRES    VSBY  WAVE
                 AIR SEA DIR/SP/G                  HT/PER
                 (F)     (DEG/KT/KT) (MB)    (MI)  (FT/S)
CALUMET HARBOR    39     320/ 10/ 16  996.8F
MICHIGAN CITY     58     170/ 16/ 20   N/A
BURNS HARBOR      58     190/  5/ 21  996.6F

$$
&&




USA.gov is the U.S. government's official web portal to all federal, state and local government web resources and services.